PAL408 RJBB-RPLL

Flight info

Callsign PAL408
Flight time N/A
Altitude 38000
Route KRE V53 SUC B597 ONC Y579 SAKON/N0471F400 DCT POLIO POLIO3R
Aircraft A339/H-SADE1E2E3GHIJ3J5M1P2RWXY/LB2D1

Departure

Time 2026-04-27 00:51
Airport Kansai International Airport (RJBB)

Arrival

Time N/A
Airport Ninoy Aquino International Airport (RPLL)
Time Latitude Longitude Altitude Speed Heading
2026-04-27 00:25 34.42915 135.23857 17 ft 0 kts 321°
2026-04-27 00:40 34.42907 135.23865 17 ft 2 kts 324°
2026-04-27 00:40 34.42895 135.23875 17 ft 2 kts 324°
2026-04-27 00:40 34.42883 135.23886 17 ft 2 kts 323°
2026-04-27 00:40 34.42870 135.23897 17 ft 2 kts 323°
2026-04-27 00:41 34.42862 135.23904 17 ft 2 kts 322°
2026-04-27 00:41 34.42855 135.23918 17 ft 2 kts 267°
2026-04-27 00:41 34.42858 135.23932 17 ft 0 kts 230°
2026-04-27 00:41 34.42862 135.23938 17 ft 0 kts 230°
2026-04-27 00:44 34.42859 135.23933 17 ft 1 kts 231°
2026-04-27 00:45 34.42842 135.23909 17 ft 5 kts 231°
2026-04-27 00:45 34.42816 135.23869 17 ft 6 kts 230°
2026-04-27 00:45 34.42779 135.23825 17 ft 8 kts 214°
2026-04-27 00:45 34.42722 135.23824 17 ft 9 kts 150°
2026-04-27 00:46 34.42666 135.23871 17 ft 10 kts 149°
2026-04-27 00:46 34.42594 135.23857 17 ft 12 kts 220°
2026-04-27 00:46 34.42537 135.23773 17 ft 13 kts 231°
2026-04-27 00:46 34.42477 135.23685 17 ft 13 kts 231°
2026-04-27 00:47 34.42416 135.23592 17 ft 14 kts 231°
2026-04-27 00:47 34.42351 135.23497 17 ft 14 kts 230°
2026-04-27 00:47 34.42284 135.23398 17 ft 15 kts 231°
2026-04-27 00:47 34.42217 135.23297 17 ft 15 kts 231°
2026-04-27 00:48 34.42149 135.23195 17 ft 15 kts 230°
2026-04-27 00:48 34.42078 135.23088 17 ft 16 kts 232°
2026-04-27 00:48 34.42008 135.22983 17 ft 16 kts 231°
2026-04-27 00:48 34.41939 135.22905 17 ft 8 kts 192°
2026-04-27 00:49 34.41900 135.22931 17 ft 6 kts 143°
2026-04-27 00:49 34.41858 135.22969 17 ft 8 kts 140°
2026-04-27 00:49 34.41822 135.23030 17 ft 9 kts 92°
2026-04-27 00:49 34.41851 135.23096 17 ft 9 kts 53°
2026-04-27 00:50 34.41924 135.23204 17 ft 36 kts 50°
2026-04-27 00:50 34.42797 135.24507 19 ft 153 kts 45°
2026-04-27 00:50 34.43477 135.25543 459 ft 160 kts 47°
2026-04-27 00:51 34.44121 135.26596 1180 ft 151 kts 49°
2026-04-27 00:51 34.44738 135.27597 1758 ft 151 kts 46°
2026-04-27 00:51 34.45378 135.28590 2269 ft 150 kts 46°
2026-04-27 00:51 34.46131 135.29410 2710 ft 145 kts 14°
2026-04-27 00:52 34.47102 135.29379 3186 ft 143 kts 341°
2026-04-27 00:52 34.48061 135.28932 3517 ft 155 kts 341°
2026-04-27 00:52 34.49129 135.28458 3809 ft 170 kts 344°
2026-04-27 00:52 34.50298 135.27879 4115 ft 189 kts 330°
2026-04-27 00:53 34.51276 135.26704 4430 ft 214 kts 304°
2026-04-27 00:53 34.51950 135.24991 4791 ft 235 kts 299°
2026-04-27 00:53 34.52542 135.23051 5177 ft 255 kts 291°
2026-04-27 00:53 34.52907 135.20918 5795 ft 267 kts 282°
2026-04-27 00:54 34.52980 135.18651 6565 ft 273 kts 273°
2026-04-27 00:54 34.52747 135.16373 7312 ft 279 kts 262°
2026-04-27 00:54 34.51897 135.14208 8051 ft 293 kts 234°
2026-04-27 00:54 34.50309 135.12656 8828 ft 303 kts 209°
2026-04-27 00:55 34.48330 135.11835 9612 ft 306 kts 199°
2026-04-27 00:55 34.46282 135.11095 10363 ft 307 kts 202°
2026-04-27 00:55 34.44255 135.10202 10772 ft 320 kts 206°
2026-04-27 00:55 34.42146 135.09093 11083 ft 336 kts 208°
2026-04-27 00:56 34.39983 135.07842 11389 ft 353 kts 210°
2026-04-27 00:56 34.37738 135.06491 11680 ft 369 kts 210°
2026-04-27 00:56 34.35421 135.05075 12119 ft 380 kts 211°
2026-04-27 00:56 34.33048 135.03622 12832 ft 383 kts 210°
2026-04-27 00:57 34.30676 135.02162 13613 ft 383 kts 212°
2026-04-27 00:57 34.28507 135.00366 14342 ft 379 kts 225°
2026-04-27 00:57 34.26707 134.98097 15064 ft 375 kts 235°
2026-04-27 00:57 34.25230 134.95523 15731 ft 377 kts 239°
2026-04-27 00:58 34.23784 134.92866 16435 ft 379 kts 240°
2026-04-27 00:58 34.22347 134.90214 17104 ft 381 kts 240°
2026-04-27 00:58 34.20880 134.87518 17777 ft 384 kts 240°
2026-04-27 00:58 34.19414 134.84834 18463 ft 385 kts 239°
2026-04-27 00:59 34.17937 134.82138 19152 ft 387 kts 239°
2026-04-27 00:59 34.16466 134.79456 19789 ft 389 kts 239°
2026-04-27 00:59 34.14955 134.76709 20419 ft 392 kts 239°
2026-04-27 00:59 34.13463 134.73999 21005 ft 394 kts 239°
2026-04-27 01:00 34.11936 134.71227 21636 ft 395 kts 239°
2026-04-27 01:00 34.10420 134.68480 22217 ft 397 kts 239°
2026-04-27 01:00 34.08899 134.65723 22817 ft 398 kts 239°
2026-04-27 01:00 34.07354 134.62926 23340 ft 400 kts 238°
2026-04-27 01:01 34.05813 134.60141 23707 ft 406 kts 238°
2026-04-27 01:01 34.04229 134.57285 24094 ft 411 kts 238°
2026-04-27 01:01 34.02644 134.54425 24565 ft 413 kts 238°
2026-04-27 01:01 34.01046 134.51541 25009 ft 415 kts 238°
2026-04-27 01:02 33.99448 134.48663 25464 ft 417 kts 239°
2026-04-27 01:02 33.97842 134.45773 25867 ft 420 kts 238°
2026-04-27 01:02 33.96217 134.42851 26261 ft 423 kts 239°
2026-04-27 01:02 33.94568 134.39887 26617 ft 426 kts 239°
2026-04-27 01:03 33.92925 134.36928 26996 ft 428 kts 239°
2026-04-27 01:03 33.91259 134.33943 27375 ft 430 kts 238°
2026-04-27 01:03 33.89604 134.30977 27827 ft 431 kts 239°
2026-04-27 01:03 33.87924 134.27965 28387 ft 429 kts 239°
2026-04-27 01:04 33.86291 134.25043 28926 ft 427 kts 239°
2026-04-27 01:04 33.84628 134.22072 29444 ft 425 kts 239°
2026-04-27 01:04 33.82996 134.19154 29943 ft 424 kts 239°
2026-04-27 01:04 33.81342 134.16199 30389 ft 423 kts 239°
2026-04-27 01:05 33.79712 134.13287 30832 ft 422 kts 239°
2026-04-27 01:05 33.78090 134.10393 31251 ft 422 kts 239°
2026-04-27 01:05 33.76456 134.07481 31679 ft 420 kts 239°
2026-04-27 01:05 33.74815 134.04559 32133 ft 419 kts 240°
2026-04-27 01:06 33.73186 134.01663 32545 ft 418 kts 240°
2026-04-27 01:06 33.71578 133.98802 32954 ft 416 kts 240°
2026-04-27 01:06 33.69968 133.95940 33350 ft 415 kts 240°
2026-04-27 01:06 33.68362 133.93094 33733 ft 414 kts 240°
2026-04-27 01:07 33.66751 133.90236 34063 ft 414 kts 240°
2026-04-27 01:07 33.65138 133.87375 34364 ft 413 kts 240°
2026-04-27 01:07 33.63527 133.84521 34703 ft 412 kts 240°
2026-04-27 01:07 33.61940 133.81712 35013 ft 411 kts 240°
2026-04-27 01:08 33.60329 133.78862 35344 ft 409 kts 240°
2026-04-27 01:08 33.58705 133.76073 35640 ft 409 kts 238°
2026-04-27 01:08 33.56965 133.73372 35944 ft 411 kts 236°
2026-04-27 01:08 33.55127 133.70790 36241 ft 413 kts 233°
2026-04-27 01:09 33.53148 133.68271 36471 ft 416 kts 231°
2026-04-27 01:09 33.51044 133.65849 36700 ft 420 kts 228°
2026-04-27 01:09 33.48851 133.63567 36933 ft 423 kts 226°
2026-04-27 01:09 33.46536 133.61394 37157 ft 426 kts 223°
2026-04-27 01:10 33.44146 133.59299 37358 ft 428 kts 223°
2026-04-27 01:10 33.41741 133.57184 37578 ft 429 kts 223°
2026-04-27 01:10 33.39328 133.55066 37751 ft 431 kts 223°
2026-04-27 01:10 33.36911 133.52951 37957 ft 433 kts 223°
2026-04-27 01:11 33.34491 133.50841 37908 ft 432 kts 223°
2026-04-27 01:11 33.29659 133.46623 37891 ft 432 kts 223°
2026-04-27 01:12 33.24833 133.42413 37882 ft 430 kts 224°
2026-04-27 01:12 33.19969 133.38173 37884 ft 431 kts 224°
2026-04-27 01:13 33.15128 133.33958 37880 ft 432 kts 223°
2026-04-27 01:13 33.10284 133.29750 37878 ft 433 kts 223°
2026-04-27 01:14 33.05412 133.25507 37877 ft 433 kts 224°
2026-04-27 01:14 33.00576 133.21300 37878 ft 432 kts 224°
2026-04-27 01:15 32.95724 133.17084 37891 ft 433 kts 224°
2026-04-27 01:15 32.90852 133.12856 37898 ft 432 kts 224°
2026-04-27 01:16 32.87054 133.09567 37904 ft 432 kts 224°
2026-04-27 01:16 32.82982 133.06036 37894 ft 432 kts 224°
2026-04-27 01:17 32.78128 133.01843 37913 ft 433 kts 225°
2026-04-27 01:17 32.73362 132.97501 37919 ft 429 kts 227°
2026-04-27 01:18 32.68741 132.93071 37907 ft 427 kts 227°
2026-04-27 01:18 32.64116 132.88646 37899 ft 426 kts 227°
2026-04-27 01:19 32.59488 132.84219 37893 ft 428 kts 227°
2026-04-27 01:19 32.56083 132.80965 37906 ft 427 kts 228°
2026-04-27 01:20 32.51434 132.76529 37912 ft 426 kts 228°
2026-04-27 01:20 32.46854 132.72166 37907 ft 428 kts 228°
2026-04-27 01:21 32.42223 132.67752 37907 ft 428 kts 228°
2026-04-27 01:21 32.37609 132.63367 37923 ft 426 kts 228°
2026-04-27 01:22 32.32995 132.58987 37927 ft 425 kts 228°
2026-04-27 01:22 32.28416 132.54648 37912 ft 426 kts 228°
2026-04-27 01:23 32.23772 132.50247 37923 ft 425 kts 228°
2026-04-27 01:23 32.19170 132.45897 37933 ft 423 kts 229°
2026-04-27 01:24 32.14600 132.41580 37917 ft 422 kts 229°
2026-04-27 01:24 32.09994 132.37242 37923 ft 423 kts 228°
2026-04-27 01:25 32.05350 132.32880 37934 ft 423 kts 229°
2026-04-27 01:25 32.00740 132.28552 37938 ft 422 kts 228°
2026-04-27 01:26 31.96136 132.24234 37931 ft 422 kts 228°
2026-04-27 01:26 31.91546 132.19942 37937 ft 422 kts 228°
2026-04-27 01:27 31.87938 132.16563 37933 ft 422 kts 229°
2026-04-27 01:27 31.86720 132.15424 37932 ft 421 kts 228°
2026-04-27 01:28 31.82114 132.11116 37934 ft 422 kts 229°
2026-04-27 01:28 31.77519 132.06824 37932 ft 422 kts 229°
2026-04-27 01:29 31.72920 132.02534 37937 ft 422 kts 229°
2026-04-27 01:29 31.68331 131.98257 37934 ft 421 kts 229°
2026-04-27 01:30 31.63734 131.93983 37938 ft 421 kts 229°
2026-04-27 01:30 31.59167 131.89737 37940 ft 420 kts 229°
2026-04-27 01:31 31.54581 131.85483 37934 ft 422 kts 229°
2026-04-27 01:31 31.49991 131.81235 37943 ft 418 kts 229°
2026-04-27 01:32 31.45385 131.76975 37936 ft 422 kts 229°
2026-04-27 01:32 31.40774 131.72714 37940 ft 422 kts 229°
2026-04-27 01:33 31.36137 131.68437 37940 ft 420 kts 229°
2026-04-27 01:33 31.31545 131.64208 37938 ft 421 kts 229°
2026-04-27 01:34 31.26932 131.59961 37931 ft 420 kts 229°
2026-04-27 01:34 31.22322 131.55727 37936 ft 421 kts 229°
2026-04-27 01:35 31.17744 131.51520 37931 ft 420 kts 229°
2026-04-27 01:35 31.13132 131.47292 37930 ft 420 kts 229°
2026-04-27 01:36 31.08548 131.43091 37932 ft 420 kts 229°
2026-04-27 01:36 31.03982 131.38911 37937 ft 418 kts 229°
2026-04-27 01:37 30.99390 131.34714 37936 ft 421 kts 228°
2026-04-27 01:37 30.94778 131.30501 37931 ft 420 kts 228°
2026-04-27 01:38 30.90197 131.26321 37939 ft 421 kts 228°
2026-04-27 01:38 30.85559 131.22096 37933 ft 421 kts 228°
2026-04-27 01:39 30.80983 131.17940 37935 ft 419 kts 229°
2026-04-27 01:39 30.76365 131.13742 37943 ft 420 kts 229°
2026-04-27 01:40 30.71788 131.09596 37940 ft 418 kts 228°
2026-04-27 01:40 30.67211 131.05463 37959 ft 418 kts 228°
2026-04-27 01:41 30.62557 131.01331 37964 ft 422 kts 226°
2026-04-27 01:41 30.57593 130.97630 37957 ft 431 kts 220°
2026-04-27 01:42 30.52302 130.94362 37958 ft 431 kts 218°
2026-04-27 01:42 30.46970 130.91135 37960 ft 433 kts 218°
2026-04-27 01:43 30.41641 130.87913 37959 ft 434 kts 218°
2026-04-27 01:43 30.36289 130.84686 37955 ft 434 kts 218°
2026-04-27 01:44 30.30916 130.81448 37952 ft 434 kts 218°
2026-04-27 01:44 30.25589 130.78249 37954 ft 432 kts 218°
2026-04-27 01:45 30.20240 130.75037 37956 ft 434 kts 218°
2026-04-27 01:45 30.14886 130.71825 37958 ft 434 kts 218°
2026-04-27 01:46 30.09511 130.68604 37955 ft 434 kts 218°
2026-04-27 01:46 30.04166 130.65410 37963 ft 434 kts 218°
2026-04-27 01:47 29.98783 130.62192 37960 ft 434 kts 218°
2026-04-27 01:47 29.93451 130.59013 37953 ft 432 kts 218°
2026-04-27 01:48 29.88089 130.55815 37945 ft 434 kts 218°
2026-04-27 01:48 29.82714 130.52617 37950 ft 434 kts 218°
2026-04-27 01:49 29.77343 130.49426 37955 ft 433 kts 218°
2026-04-27 01:49 29.72000 130.46257 37960 ft 435 kts 218°
2026-04-27 01:50 29.66640 130.43080 37963 ft 433 kts 218°
2026-04-27 01:50 29.61267 130.39899 37962 ft 434 kts 218°
2026-04-27 01:51 29.55899 130.36723 37964 ft 434 kts 218°
2026-04-27 01:51 29.50541 130.33560 37969 ft 432 kts 217°
2026-04-27 01:52 29.45175 130.30394 37966 ft 434 kts 217°
2026-04-27 01:52 29.39829 130.27241 37967 ft 432 kts 217°
2026-04-27 01:53 29.34487 130.24100 37967 ft 433 kts 217°
2026-04-27 01:53 29.29118 130.20947 37963 ft 431 kts 217°
2026-04-27 01:54 29.23801 130.17822 37967 ft 432 kts 217°
2026-04-27 01:54 29.18464 130.14693 37971 ft 431 kts 217°
2026-04-27 01:55 29.13085 130.11546 37972 ft 432 kts 217°
2026-04-27 01:55 29.07784 130.08446 37972 ft 430 kts 216°
2026-04-27 01:56 28.99800 130.03786 37971 ft 429 kts 217°
2026-04-27 01:56 28.94466 130.00674 37973 ft 432 kts 216°
2026-04-27 01:57 28.89127 129.97566 37973 ft 430 kts 217°
2026-04-27 01:57 28.83794 129.94463 37968 ft 430 kts 216°
2026-04-27 01:58 28.78445 129.91356 37973 ft 429 kts 216°
2026-04-27 01:58 28.73153 129.88286 37972 ft 428 kts 216°
2026-04-27 01:59 28.67838 129.85204 37971 ft 428 kts 216°
2026-04-27 01:59 28.62526 129.82129 37977 ft 429 kts 216°
2026-04-27 02:00 28.57212 129.79057 37972 ft 427 kts 216°
2026-04-27 02:00 28.51902 129.75990 37974 ft 428 kts 216°
2026-04-27 02:01 28.46683 129.72775 37978 ft 423 kts 220°
2026-04-27 02:01 28.41842 129.69086 37980 ft 416 kts 225°
2026-04-27 02:02 28.37419 129.64963 37981 ft 410 kts 229°
2026-04-27 02:02 28.33172 129.60657 37985 ft 410 kts 229°
2026-04-27 02:03 28.28925 129.56360 37983 ft 409 kts 230°
2026-04-27 02:03 28.24676 129.52055 37987 ft 410 kts 229°
2026-04-27 02:04 28.20422 129.47751 37987 ft 410 kts 229°
2026-04-27 02:04 28.16171 129.43442 37991 ft 410 kts 229°
2026-04-27 02:05 28.11935 129.39137 37996 ft 410 kts 229°
2026-04-27 02:05 28.07712 129.34851 37996 ft 409 kts 229°
2026-04-27 02:06 28.03451 129.30531 38002 ft 410 kts 228°
2026-04-27 02:06 27.99196 129.26225 38001 ft 410 kts 228°
2026-04-27 02:07 27.94958 129.21938 38009 ft 410 kts 229°
2026-04-27 02:07 27.90695 129.17631 38006 ft 411 kts 229°
2026-04-27 02:08 27.86436 129.13332 38005 ft 411 kts 228°